User: anonymous   Login
Location: Platte
(43.3870°N, 98.8440°W)
Time: 11:36:38
(UTC-05:00)
Language:

Landsat 7 - Orbit

View from above orbital plane
View from above orbital plane
View from above satellite
View from above satellite

Ground track
Ground track

The orbit data is extracted from the following two-line orbital elements,

1 25682U 99020A   18110.21459399  .00000035  00000-0  17839-4 0  9996
2 25682  98.1719 181.5041 0001379  98.4901 261.6536 14.57130007 11303
Epoch (UTC): 20 April 2018 05:09:00
Eccentricity: 0.0001379
inclination: 98.1719°
perigee height: 701 km
apogee height: 703 km
right ascension of ascending node: 181.5041°
argument of perigee: 98.4901°
revolutions per day: 14.57130007
mean anomaly at epoch: 261.6536°
orbit number at epoch: 1130

The dashed part of the orbit path shows where the satellite is in the earth's shadow,  

DLR